| time (UTC) | temp F | wind direction | speed MPH | gust MPH | rain 1hr in | rain 24hr in | rain mn in | humidity % | barometer mb |
| 20260906151100 | 88 | 0 | 0.0 | 0.0 | 0.00 | 0.00 | 0.00 | 44 | 1012.8 |
| 20260906150602 | 87 | 0 | 0.0 | 0.0 | 0.00 | 0.00 | 0.00 | 46 | 1012.8 |
| 20260906150109 | 85 | 0 | 0.0 | 1.0 | 0.00 | 0.00 | 0.00 | 48 | 1012.8 |
| 20260906145601 | 84 | 0 | 0.0 | 1.0 | 0.00 | 0.00 | 0.00 | 50 | 1012.8 |
| 20260906145100 | 83 | 0 | 0.0 | 1.0 | 0.00 | 0.00 | 0.00 | 50 | 1012.8 |
| 20260906144605 | 83 | 0 | 0.0 | 1.0 | 0.00 | 0.00 | 0.00 | 50 | 1012.8 |
| 20260906144059 | 82 | 0 | 0.0 | 1.0 | 0.00 | 0.00 | 0.00 | 51 | 1012.7 |
| 20260906143601 | 82 | 0 | 0.0 | 2.0 | 0.00 | 0.00 | 0.00 | 51 | 1012.7 |
| 20260906143103 | 82 | 293 | 0.0 | 3.0 | 0.00 | 0.00 | 0.00 | 51 | 1012.6 |
| 20260906142559 | 82 | 289 | 0.0 | 3.0 | 0.00 | 0.00 | 0.00 | 50 | 1012.6 |
| 20260906142101 | 82 | 0 | 0.0 | 3.0 | 0.00 | 0.00 | 0.00 | 50 | 1012.6 |
| 20260906141605 | 82 | 283 | 1.0 | 3.0 | 0.00 | 0.00 | 0.00 | 49 | 1012.5 |
| 20260906141059 | 82 | 214 | 1.0 | 2.0 | 0.00 | 0.00 | 0.00 | 49 | 1012.5 |
| 20260906140600 | 82 | 283 | 1.0 | 4.0 | 0.00 | 0.00 | 0.00 | 49 | 1012.4 |
| 20260906140108 | 81 | 288 | 0.0 | 4.0 | 0.00 | 0.00 | 0.00 | 49 | 1012.3 |
| 20260906135600 | 81 | 288 | 2.0 | 4.0 | 0.00 | 0.00 | 0.00 | 49 | 1012.3 |
| 20260906135103 | 81 | 298 | 1.0 | 2.0 | 0.00 | 0.00 | 0.00 | 49 | 1012.1 |
| 20260906134617 | 81 | 319 | 1.0 | 3.0 | 0.00 | 0.00 | 0.00 | 49 | 1012.2 |
| 20260906134100 | 81 | 307 | 0.0 | 3.0 | 0.00 | 0.00 | 0.00 | 49 | 1012.2 |
| 20260906133559 | 80 | 293 | 1.0 | 3.0 | 0.00 | 0.00 | 0.00 | 50 | 1012.2 |
| 20260906133113 | 80 | 290 | 1.0 | 3.0 | 0.00 | 0.00 | 0.00 | 50 | 1012.1 |
| 20260906132600 | 79 | 0 | 0.0 | 2.0 | 0.00 | 0.00 | 0.00 | 51 | 1012.0 |
| 20260906132103 | 79 | 288 | 0.0 | 1.0 | 0.00 | 0.00 | 0.00 | 52 | 1012.1 |
| 20260906131602 | 79 | 285 | 0.0 | 1.0 | 0.00 | 0.00 | 0.00 | 52 | 1012.0 |
| 20260906131059 | 79 | 0 | 0.0 | 0.0 | 0.00 | 0.00 | 0.00 | 52 | 1012.0 |
| 20260906130559 | 79 | 0 | 0.0 | 1.0 | 0.00 | 0.00 | 0.00 | 52 | 1011.9 |
| 20260906130112 | 79 | 0 | 0.0 | 1.0 | 0.00 | 0.00 | 0.00 | 52 | 1011.9 |
| 20260906125600 | 79 | 296 | 0.0 | 1.0 | 0.00 | 0.00 | 0.00 | 51 | 1011.8 |
| 20260906125102 | 79 | 297 | 0.0 | 1.0 | 0.00 | 0.00 | 0.00 | 51 | 1011.7 |
| 20260906124602 | 79 | 0 | 0.0 | 1.0 | 0.00 | 0.00 | 0.00 | 51 | 1011.8 |
| 20260906124059 | 79 | 0 | 0.0 | 0.0 | 0.00 | 0.00 | 0.00 | 51 | 1011.8 |
| 20260906123559 | 79 | 0 | 0.0 | 0.0 | 0.00 | 0.00 | 0.00 | 51 | 1011.7 |
| 20260906123104 | 79 | 0 | 0.0 | 0.0 | 0.00 | 0.00 | 0.00 | 51 | 1011.7 |
| 20260906122600 | 79 | 0 | 0.0 | 0.0 | 0.00 | 0.00 | 0.00 | 51 | 1011.7 |
| 20260906122059 | 80 | 0 | 0.0 | 0.0 | 0.00 | 0.00 | 0.00 | 50 | 1011.7 |
| 20260906121608 | 80 | 0 | 0.0 | 0.0 | 0.00 | 0.00 | 0.00 | 50 | 1011.7 |
| 20260906121059 | 80 | 0 | 0.0 | 0.0 | 0.00 | 0.00 | 0.00 | 51 | 1011.7 |
| 20260906120559 | 79 | 0 | 0.0 | 0.0 | 0.00 | 0.00 | 0.00 | 51 | 1011.7 |
| 20260906120104 | 80 | 0 | 0.0 | 0.0 | 0.00 | 0.00 | 0.00 | 51 | 1011.6 |
| 20260906115601 | 80 | 0 | 0.0 | 0.0 | 0.00 | 0.00 | 0.00 | 50 | 1011.6 |
| 20260906115100 | 81 | 0 | 0.0 | 1.0 | 0.00 | 0.00 | 0.00 | 50 | 1011.6 |
| 20260906114622 | 81 | 0 | 0.0 | 1.0 | 0.00 | 0.00 | 0.00 | 49 | 1011.5 |
| 20260906114100 | 81 | 0 | 0.0 | 1.0 | 0.00 | 0.00 | 0.00 | 49 | 1011.5 |
| 20260906113559 | 81 | 259 | 0.0 | 1.0 | 0.00 | 0.00 | 0.00 | 49 | 1011.6 |
| 20260906113114 | 81 | 0 | 0.0 | 2.0 | 0.00 | 0.00 | 0.00 | 49 | 1011.6 |
| 20260906112603 | 82 | 259 | 0.0 | 2.0 | 0.00 | 0.00 | 0.00 | 49 | 1011.6 |
| 20260906112059 | 82 | 290 | 1.0 | 3.0 | 0.00 | 0.00 | 0.00 | 49 | 1011.5 |
| 20260906111600 | 82 | 290 | 1.0 | 3.0 | 0.00 | 0.00 | 0.00 | 49 | 1011.5 |
| 20260906111059 | 82 | 278 | 1.0 | 3.0 | 0.00 | 0.00 | 0.00 | 49 | 1011.5 |
| 20260906110600 | 82 | 283 | 0.0 | 2.0 | 0.00 | 0.00 | 0.00 | 49 | 1011.6 |
| 20260906105601 | 82 | 0 | 0.0 | 4.0 | 0.00 | 0.00 | 0.00 | 49 | 1011.7 |
| 20260906105100 | 82 | 287 | 1.0 | 4.0 | 0.00 | 0.00 | 0.00 | 49 | 1011.7 |
| 20260906104603 | 82 | 264 | 2.0 | 5.0 | 0.00 | 0.00 | 0.00 | 49 | 1011.7 |
| 20260906104100 | 82 | 248 | 2.0 | 5.0 | 0.00 | 0.00 | 0.00 | 49 | 1011.7 |
| 20260906103600 | 82 | 259 | 2.0 | 4.0 | 0.00 | 0.00 | 0.00 | 49 | 1011.6 |
| 20260906103104 | 82 | 291 | 2.0 | 4.0 | 0.00 | 0.00 | 0.00 | 49 | 1011.6 |
| 20260906102600 | 82 | 278 | 2.0 | 4.0 | 0.00 | 0.00 | 0.00 | 49 | 1011.5 |
| 20260906102101 | 82 | 254 | 2.0 | 4.0 | 0.00 | 0.00 | 0.00 | 49 | 1011.5 |
| 20260906101605 | 82 | 257 | 2.0 | 4.0 | 0.00 | 0.00 | 0.00 | 49 | 1011.5 |
| 20260906101059 | 82 | 255 | 2.0 | 4.0 | 0.00 | 0.00 | 0.00 | 49 | 1011.5 |
| 20260906100559 | 82 | 214 | 2.0 | 4.0 | 0.00 | 0.00 | 0.00 | 49 | 1011.4 |
| 20260906100108 | 82 | 234 | 2.0 | 4.0 | 0.00 | 0.00 | 0.00 | 49 | 1011.5 |
| 20260906095559 | 82 | 229 | 2.0 | 3.0 | 0.00 | 0.00 | 0.00 | 48 | 1011.5 |
| 20260906095100 | 82 | 259 | 1.0 | 2.0 | 0.00 | 0.00 | 0.00 | 48 | 1011.5 |
| 20260906094601 | 82 | 259 | 0.0 | 1.0 | 0.00 | 0.00 | 0.00 | 48 | 1011.5 |
| 20260906094059 | 83 | 0 | 0.0 | 2.0 | 0.00 | 0.00 | 0.00 | 48 | 1011.5 |
| 20260906093600 | 83 | 0 | 0.0 | 2.0 | 0.00 | 0.00 | 0.00 | 49 | 1011.6 |
| 20260906093105 | 83 | 276 | 0.0 | 1.0 | 0.00 | 0.00 | 0.00 | 48 | 1011.6 |
| 20260906092559 | 83 | 0 | 0.0 | 2.0 | 0.00 | 0.00 | 0.00 | 48 | 1011.6 |
| 20260906092058 | 84 | 283 | 0.0 | 2.0 | 0.00 | 0.00 | 0.00 | 48 | 1011.5 |
| 20260906091619 | 84 | 293 | 0.0 | 3.0 | 0.00 | 0.00 | 0.00 | 47 | 1011.5 |
| 20260906091103 | 84 | 271 | 1.0 | 3.0 | 0.00 | 0.00 | 0.00 | 48 | 1011.5 |
| 20260906090600 | 84 | 259 | 1.0 | 3.0 | 0.00 | 0.00 | 0.00 | 48 | 1011.5 |
| 20260906090112 | 84 | 313 | 1.0 | 2.0 | 0.00 | 0.00 | 0.00 | 48 | 1011.5 |
| 20260906085559 | 84 | 308 | 1.0 | 2.0 | 0.00 | 0.00 | 0.00 | 48 | 1011.4 |
| 20260906085059 | 84 | 306 | 1.0 | 4.0 | 0.00 | 0.00 | 0.00 | 48 | 1011.5 |
| 20260906084602 | 84 | 295 | 2.0 | 4.0 | 0.00 | 0.00 | 0.00 | 48 | 1011.5 |
| 20260906084100 | 85 | 300 | 2.0 | 5.0 | 0.00 | 0.00 | 0.00 | 47 | 1011.6 |
| 20260906083559 | 85 | 237 | 3.0 | 5.0 | 0.00 | 0.00 | 0.00 | 48 | 1011.6 |
| 20260906083107 | 85 | 281 | 2.0 | 4.0 | 0.00 | 0.00 | 0.00 | 48 | 1011.7 |
| 20260906082558 | 85 | 280 | 2.0 | 4.0 | 0.00 | 0.00 | 0.00 | 48 | 1011.7 |
| 20260906082059 | 85 | 300 | 2.0 | 4.0 | 0.00 | 0.00 | 0.00 | 48 | 1011.7 |
| 20260906081602 | 85 | 274 | 2.0 | 3.0 | 0.00 | 0.00 | 0.00 | 48 | 1011.9 |
| 20260906081059 | 85 | 276 | 1.0 | 2.0 | 0.00 | 0.00 | 0.00 | 49 | 1011.9 |
| 20260906080559 | 85 | 280 | 0.0 | 3.0 | 0.00 | 0.00 | 0.00 | 49 | 1011.9 |
| 20260906080109 | 85 | 277 | 1.0 | 3.0 | 0.00 | 0.00 | 0.00 | 48 | 1011.9 |
| 20260906075559 | 85 | 264 | 1.0 | 3.0 | 0.00 | 0.00 | 0.00 | 48 | 1012.0 |
| 20260906075059 | 85 | 281 | 2.0 | 4.0 | 0.00 | 0.00 | 0.00 | 48 | 1012.0 |
| 20260906074604 | 85 | 264 | 2.0 | 4.0 | 0.00 | 0.00 | 0.00 | 47 | 1012.0 |
| 20260906074059 | 85 | 250 | 2.0 | 4.0 | 0.00 | 0.00 | 0.00 | 47 | 1012.0 |
| 20260906073559 | 86 | 275 | 1.0 | 3.0 | 0.00 | 0.00 | 0.00 | 47 | 1012.1 |
| 20260906073103 | 86 | 283 | 1.0 | 4.0 | 0.00 | 0.00 | 0.00 | 46 | 1012.1 |
| 20260906072559 | 86 | 285 | 2.0 | 4.0 | 0.00 | 0.00 | 0.00 | 46 | 1012.2 |
| 20260906072100 | 86 | 289 | 2.0 | 4.0 | 0.00 | 0.00 | 0.00 | 46 | 1012.1 |
| 20260906071613 | 86 | 274 | 1.0 | 4.0 | 0.00 | 0.00 | 0.00 | 46 | 1012.2 |
| 20260906071059 | 86 | 266 | 1.0 | 3.0 | 0.00 | 0.00 | 0.00 | 45 | 1012.2 |
| 20260906070559 | 86 | 255 | 1.0 | 3.0 | 0.00 | 0.00 | 0.00 | 45 | 1012.3 |
| 20260906070109 | 86 | 258 | 1.0 | 3.0 | 0.00 | 0.00 | 0.00 | 45 | 1012.2 |
| 20260906065559 | 87 | 245 | 1.0 | 5.0 | 0.00 | 0.00 | 0.00 | 44 | 1012.2 |
| 20260906065059 | 87 | 275 | 2.0 | 5.0 | 0.00 | 0.00 | 0.00 | 44 | 1012.3 |
| 20260906064603 | 87 | 257 | 1.0 | 3.0 | 0.00 | 0.00 | 0.00 | 44 | 1012.3 |
| 20260906064059 | 87 | 259 | 1.0 | 3.0 | 0.00 | 0.00 | 0.00 | 44 | 1012.3 |
| 20260906063557 | 87 | 295 | 1.0 | 3.0 | 0.00 | 0.00 | 0.00 | 44 | 1012.4 |
| 20260906063105 | 87 | 288 | 1.0 | 3.0 | 0.00 | 0.00 | 0.00 | 44 | 1012.3 |
| 20260906062601 | 87 | 295 | 1.0 | 2.0 | 0.00 | 0.00 | 0.00 | 44 | 1012.2 |
| 20260906062059 | 87 | 311 | 0.0 | 3.0 | 0.00 | 0.00 | 0.00 | 43 | 1012.2 |
| 20260906061559 | 87 | 327 | 1.0 | 4.0 | 0.00 | 0.00 | 0.00 | 43 | 1012.1 |
| 20260906061059 | 87 | 314 | 2.0 | 4.0 | 0.00 | 0.00 | 0.00 | 43 | 1012.2 |
| 20260906060559 | 87 | 320 | 2.0 | 5.0 | 0.00 | 0.00 | 0.00 | 43 | 1012.2 |
| 20260906060151 | 87 | 324 | 3.0 | 5.0 | 0.00 | 0.00 | 0.00 | 44 | 1012.3 |
| 20260906055558 | 87 | 332 | 2.0 | 5.0 | 0.00 | 0.00 | 0.00 | 44 | 1012.3 |
| 20260906055059 | 87 | 325 | 3.0 | 6.0 | 0.00 | 0.00 | 0.00 | 44 | 1012.3 |
| 20260906054613 | 87 | 321 | 3.0 | 6.0 | 0.00 | 0.00 | 0.00 | 44 | 1012.3 |
| 20260906054100 | 87 | 314 | 3.0 | 4.0 | 0.00 | 0.00 | 0.00 | 43 | 1012.3 |
| 20260906053558 | 87 | 326 | 2.0 | 3.0 | 0.00 | 0.00 | 0.00 | 43 | 1012.3 |
| 20260906053101 | 88 | 329 | 1.0 | 2.0 | 0.00 | 0.00 | 0.00 | 42 | 1012.3 |
| 20260906052559 | 88 | 319 | 1.0 | 2.0 | 0.00 | 0.00 | 0.00 | 42 | 1012.3 |
| 20260906052102 | 88 | 297 | 1.0 | 1.0 | 0.00 | 0.00 | 0.00 | 42 | 1012.3 |
| 20260906051605 | 88 | 299 | 1.0 | 1.0 | 0.00 | 0.00 | 0.00 | 42 | 1012.3 |
| 20260906051059 | 88 | 293 | 0.0 | 1.0 | 0.00 | 0.00 | 0.00 | 42 | 1012.4 |
| 20260906050559 | 88 | 0 | 0.0 | 2.0 | 0.00 | 0.00 | 0.00 | 42 | 1012.3 |
| 20260906050115 | 88 | 286 | 1.0 | 2.0 | 0.00 | 0.00 | 0.00 | 42 | 1012.3 |
| 20260906045559 | 88 | 283 | 1.0 | 2.0 | 0.00 | 0.00 | 0.00 | 41 | 1012.4 |
| 20260906045059 | 88 | 313 | 1.0 | 2.0 | 0.00 | 0.00 | 0.00 | 41 | 1012.4 |
| 20260906044603 | 89 | 297 | 1.0 | 1.0 | 0.00 | 0.00 | 0.00 | 41 | 1012.4 |
| 20260906044102 | 88 | 330 | 0.0 | 0.0 | 0.00 | 0.00 | 0.00 | 40 | 1012.5 |
| 20260906043558 | 89 | 0 | 0.0 | 0.0 | 0.00 | 0.00 | 0.00 | 40 | 1012.5 |
| 20260906043112 | 89 | 0 | 0.0 | 0.0 | 0.00 | 0.00 | 0.00 | 40 | 1012.5 |
| 20260906042559 | 89 | 0 | 0.0 | 0.0 | 0.00 | 0.00 | 0.00 | 40 | 1012.5 |
| 20260906042059 | 89 | 0 | 0.0 | 0.0 | 0.00 | 0.00 | 0.00 | 39 | 1012.5 |
| 20260906041601 | 89 | 0 | 0.0 | 0.0 | 0.00 | 0.00 | 0.00 | 39 | 1012.6 |
| 20260906041058 | 90 | 0 | 0.0 | 0.0 | 0.00 | 0.00 | 0.00 | 39 | 1012.6 |
| 20260906040600 | 90 | 0 | 0.0 | 0.0 | 0.00 | 0.00 | 0.00 | 38 | 1012.6 |
| 20260906035558 | 90 | 0 | 0.0 | 0.0 | 0.00 | 0.00 | 0.00 | 38 | 1012.5 |
| 20260906035058 | 90 | 0 | 0.0 | 2.0 | 0.00 | 0.00 | 0.00 | 38 | 1012.5 |
| 20260906034603 | 90 | 0 | 0.0 | 2.0 | 0.00 | 0.00 | 0.00 | 38 | 1012.4 |
| 20260906034058 | 90 | 257 | 0.0 | 2.0 | 0.00 | 0.00 | 0.00 | 38 | 1012.3 |
| 20260906033559 | 91 | 259 | 0.0 | 2.0 | 0.00 | 0.00 | 0.00 | 38 | 1012.1 |
| 20260906033104 | 91 | 257 | 0.0 | 3.0 | 0.00 | 0.00 | 0.00 | 37 | 1012.0 |
| 20260906032559 | 91 | 0 | 0.0 | 3.0 | 0.00 | 0.00 | 0.00 | 37 | 1012.0 |
| 20260906032059 | 91 | 288 | 1.0 | 3.0 | 0.00 | 0.00 | 0.00 | 37 | 1012.0 |
| 20260906031630 | 91 | 273 | 1.0 | 3.0 | 0.00 | 0.00 | 0.00 | 37 | 1011.9 |
| 20260906031059 | 91 | 0 | 0.0 | 1.0 | 0.00 | 0.00 | 0.00 | 37 | 1011.8 |
| 20260906030559 | 91 | 238 | 0.0 | 0.0 | 0.00 | 0.00 | 0.00 | 37 | 1011.7 |
| 20260906030108 | 91 | 0 | 0.0 | 1.0 | 0.00 | 0.00 | 0.00 | 37 | 1011.7 |
| 20260906025558 | 91 | 0 | 0.0 | 2.0 | 0.00 | 0.00 | 0.00 | 36 | 1011.5 |
| 20260906025100 | 92 | 0 | 0.0 | 3.0 | 0.00 | 0.00 | 0.00 | 36 | 1011.6 |
| 20260906024605 | 92 | 269 | 0.0 | 3.0 | 0.00 | 0.00 | 0.00 | 36 | 1011.6 |
| 20260906024058 | 92 | 286 | 1.0 | 3.0 | 0.00 | 0.00 | 0.00 | 36 | 1011.6 |
| 20260906023558 | 92 | 303 | 1.0 | 3.0 | 0.00 | 0.00 | 0.00 | 36 | 1011.6 |
| 20260906023113 | 92 | 263 | 1.0 | 4.0 | 0.00 | 0.00 | 0.00 | 36 | 1011.7 |
| 20260906022604 | 93 | 275 | 2.0 | 6.0 | 0.00 | 0.00 | 0.00 | 36 | 1011.6 |
| 20260906022100 | 93 | 295 | 2.0 | 6.0 | 0.00 | 0.00 | 0.00 | 36 | 1011.7 |
| 20260906021601 | 93 | 297 | 3.0 | 5.0 | 0.00 | 0.00 | 0.00 | 36 | 1011.7 |
| 20260906021100 | 93 | 285 | 2.0 | 4.0 | 0.00 | 0.00 | 0.00 | 35 | 1011.7 |
| 20260906020600 | 93 | 275 | 1.0 | 3.0 | 0.00 | 0.00 | 0.00 | 35 | 1011.8 |
| 20260906020103 | 93 | 240 | 2.0 | 5.0 | 0.00 | 0.00 | 0.00 | 35 | 1011.8 |
| 20260906015559 | 93 | 278 | 2.0 | 5.0 | 0.00 | 0.00 | 0.00 | 35 | 1011.8 |
| 20260906015059 | 94 | 320 | 2.0 | 5.0 | 0.00 | 0.00 | 0.00 | 35 | 1011.8 |
| 20260906014609 | 94 | 275 | 3.0 | 5.0 | 0.00 | 0.00 | 0.00 | 35 | 1011.9 |
| 20260906014059 | 94 | 257 | 3.0 | 6.0 | 0.00 | 0.00 | 0.00 | 35 | 1011.9 |
| 20260906013600 | 94 | 208 | 2.0 | 6.0 | 0.00 | 0.00 | 0.00 | 34 | 1011.9 |
| 20260906013101 | 94 | 270 | 3.0 | 8.0 | 0.00 | 0.00 | 0.00 | 34 | 1011.9 |
| 20260906012559 | 94 | 248 | 4.0 | 8.0 | 0.00 | 0.00 | 0.00 | 34 | 1011.9 |
| 20260906012059 | 95 | 253 | 3.0 | 8.0 | 0.00 | 0.00 | 0.00 | 34 | 1012.0 |
| 20260906011612 | 95 | 255 | 4.0 | 9.0 | 0.00 | 0.00 | 0.00 | 34 | 1012.0 |
| 20260906011059 | 95 | 231 | 4.0 | 9.0 | 0.00 | 0.00 | 0.00 | 34 | 1012.1 |
| 20260906010559 | 95 | 259 | 5.0 | 9.0 | 0.00 | 0.00 | 0.00 | 34 | 1012.1 |
| 20260906010107 | 95 | 302 | 5.0 | 9.0 | 0.00 | 0.00 | 0.00 | 33 | 1012.0 |
| 20260906005600 | 95 | 299 | 5.0 | 9.0 | 0.00 | 0.00 | 0.00 | 33 | 1012.0 |
| 20260906004603 | 96 | 342 | 5.0 | 10.0 | 0.00 | 0.00 | 0.00 | 32 | 1011.9 |
| 20260906004100 | 96 | 286 | 6.0 | 10.0 | 0.00 | 0.00 | 0.00 | 32 | 1012.0 |
| 20260906003600 | 96 | 257 | 4.0 | 8.0 | 0.00 | 0.00 | 0.00 | 32 | 1012.0 |
| 20260906003102 | 96 | 224 | 5.0 | 10.0 | 0.00 | 0.00 | 0.00 | 32 | 1012.0 |
| 20260906002559 | 96 | 327 | 4.0 | 10.0 | 0.00 | 0.00 | 0.00 | 32 | 1012.0 |
| 20260906002100 | 96 | 269 | 5.0 | 10.0 | 0.00 | 0.00 | 0.00 | 32 | 1012.0 |
| 20260906001609 | 97 | 295 | 4.0 | 11.0 | 0.00 | 0.00 | 0.00 | 31 | 1011.9 |
| 20260906001100 | 97 | 243 | 6.0 | 11.0 | 0.00 | 0.00 | 0.00 | 31 | 1012.0 |
| 20260906000600 | 97 | 254 | 3.0 | 10.0 | 0.00 | 0.00 | 0.00 | 31 | 1011.9 |
| 20260906000109 | 97 | 262 | 4.0 | 10.0 | 0.00 | 0.00 | 0.00 | 31 | 1011.9 |
| 20260905235600 | 98 | 286 | 6.0 | 12.0 | 0.00 | 0.00 | 0.00 | 31 | 1011.9 |
| 20260905235100 | 98 | 281 | 4.0 | 12.0 | 0.00 | 0.00 | 0.00 | 31 | 1012.0 |
| 20260905234611 | 98 | 236 | 6.0 | 12.0 | 0.00 | 0.00 | 0.00 | 30 | 1011.9 |
| 20260905234104 | 99 | 264 | 4.0 | 12.0 | 0.00 | 0.00 | 0.00 | 30 | 1011.9 |
| 20260905233600 | 99 | 328 | 6.0 | 12.0 | 0.00 | 0.00 | 0.00 | 30 | 1011.9 |
| 20260905233106 | 99 | 277 | 7.0 | 11.0 | 0.00 | 0.00 | 0.00 | 29 | 1011.9 |
| 20260905232558 | 100 | 280 | 4.0 | 14.0 | 0.00 | 0.00 | 0.00 | 29 | 1011.9 |
| 20260905232058 | 100 | 229 | 8.0 | 14.0 | 0.00 | 0.00 | 0.00 | 29 | 1011.9 |
| 20260905231618 | 101 | 271 | 7.0 | 11.0 | 0.00 | 0.00 | 0.00 | 28 | 1011.9 |
| 20260905231059 | 101 | 293 | 5.0 | 10.0 | 0.00 | 0.00 | 0.00 | 28 | 1011.9 |
| 20260905230558 | 101 | 308 | 3.0 | 10.0 | 0.00 | 0.00 | 0.00 | 28 | 1011.9 |
| 20260905230108 | 100 | 254 | 4.0 | 10.0 | 0.00 | 0.00 | 0.00 | 29 | 1012.0 |
| 20260905225559 | 100 | 228 | 5.0 | 10.0 | 0.00 | 0.00 | 0.00 | 29 | 1012.0 |
| 20260905225058 | 100 | 270 | 4.0 | 10.0 | 0.00 | 0.00 | 0.00 | 29 | 1012.0 |
| 20260905224605 | 100 | 253 | 5.0 | 10.0 | 0.00 | 0.00 | 0.00 | 29 | 1012.0 |
| 20260905224058 | 100 | 257 | 4.0 | 9.0 | 0.00 | 0.00 | 0.00 | 30 | 1012.0 |
| 20260905223558 | 99 | 266 | 4.0 | 9.0 | 0.00 | 0.00 | 0.00 | 30 | 1012.0 |
| 20260905223105 | 100 | 305 | 5.0 | 8.0 | 0.00 | 0.00 | 0.00 | 30 | 1012.1 |
| 20260905222559 | 100 | 303 | 4.0 | 8.0 | 0.00 | 0.00 | 0.00 | 30 | 1012.1 |
| 20260905222057 | 100 | 297 | 4.0 | 8.0 | 0.00 | 0.00 | 0.00 | 30 | 1012.0 |
| 20260905221633 | 101 | 340 | 1.0 | 10.0 | 0.00 | 0.00 | 0.00 | 29 | 1012.2 |
| 20260905221058 | 101 | 267 | 3.0 | 10.0 | 0.00 | 0.00 | 0.00 | 29 | 1012.3 |
| 20260905220558 | 101 | 262 | 5.0 | 10.0 | 0.00 | 0.00 | 0.00 | 29 | 1012.3 |
| 20260905220113 | 101 | 281 | 1.0 | 8.0 | 0.00 | 0.00 | 0.00 | 28 | 1012.4 |
| 20260905215558 | 101 | 250 | 3.0 | 8.0 | 0.00 | 0.00 | 0.00 | 29 | 1012.4 |
| 20260905215058 | 101 | 311 | 3.0 | 7.0 | 0.00 | 0.00 | 0.00 | 28 | 1012.4 |
| 20260905214608 | 100 | 156 | 1.0 | 5.0 | 0.00 | 0.00 | 0.00 | 29 | 1012.5 |
| 20260905214100 | 99 | 110 | 2.0 | 6.0 | 0.00 | 0.00 | 0.00 | 29 | 1012.6 |
| 20260905213558 | 99 | 186 | 3.0 | 8.0 | 0.00 | 0.00 | 0.00 | 29 | 1012.7 |
| 20260905213105 | 99 | 162 | 4.0 | 8.0 | 0.00 | 0.00 | 0.00 | 30 | 1012.8 |
| 20260905212558 | 99 | 153 | 2.0 | 6.0 | 0.00 | 0.00 | 0.00 | 29 | 1012.8 |
| 20260905212058 | 100 | 0 | 0.0 | 4.0 | 0.00 | 0.00 | 0.00 | 30 | 1012.9 |
| 20260905211608 | 99 | 174 | 1.0 | 9.0 | 0.00 | 0.00 | 0.00 | 31 | 1013.0 |
| 20260905211058 | 98 | 273 | 2.0 | 9.0 | 0.00 | 0.00 | 0.00 | 31 | 1013.1 |
| 20260905210558 | 98 | 96 | 3.0 | 9.0 | 0.00 | 0.00 | 0.00 | 30 | 1013.0 |
| 20260905210120 | 99 | 127 | 3.0 | 7.0 | 0.00 | 0.00 | 0.00 | 31 | 1013.1 |
| 20260905205558 | 98 | 252 | 2.0 | 6.0 | 0.00 | 0.00 | 0.00 | 31 | 1013.0 |
| 20260905205058 | 98 | 346 | 2.0 | 7.0 | 0.00 | 0.00 | 0.00 | 32 | 1013.1 |
| 20260905204601 | 98 | 137 | 3.0 | 7.0 | 0.00 | 0.00 | 0.00 | 32 | 1013.1 |
| 20260905204058 | 98 | 143 | 3.0 | 7.0 | 0.00 | 0.00 | 0.00 | 31 | 1013.2 |
| 20260905203600 | 98 | 212 | 1.0 | 4.0 | 0.00 | 0.00 | 0.00 | 31 | 1013.3 |
| 20260905203102 | 98 | 330 | 1.0 | 6.0 | 0.00 | 0.00 | 0.00 | 31 | 1013.4 |
| 20260905202559 | 98 | 321 | 2.0 | 6.0 | 0.00 | 0.00 | 0.00 | 31 | 1013.5 |
| 20260905202058 | 98 | 149 | 2.0 | 7.0 | 0.00 | 0.00 | 0.00 | 31 | 1013.5 |
| 20260905201605 | 98 | 158 | 2.0 | 7.0 | 0.00 | 0.00 | 0.00 | 31 | 1013.6 |
| 20260905201102 | 98 | 213 | 3.0 | 7.0 | 0.00 | 0.00 | 0.00 | 31 | 1013.6 |
| 20260905200601 | 98 | 120 | 3.0 | 6.0 | 0.00 | 0.00 | 0.00 | 31 | 1013.7 |
| 20260905200129 | 99 | 120 | 2.0 | 8.0 | 0.00 | 0.00 | 0.00 | 30 | 1013.7 |
| 20260905195601 | 99 | 140 | 2.0 | 8.0 | 0.00 | 0.00 | 0.00 | 30 | 1013.7 |
| 20260905195100 | 99 | 181 | 5.0 | 8.0 | 0.00 | 0.00 | 0.00 | 30 | 1013.8 |
| 20260905194603 | 98 | 110 | 4.0 | 6.0 | 0.00 | 0.00 | 0.00 | 31 | 1013.8 |
| 20260905194103 | 99 | 114 | 2.0 | 7.0 | 0.00 | 0.00 | 0.00 | 30 | 1013.9 |
| 20260905193559 | 99 | 198 | 2.0 | 9.0 | 0.00 | 0.00 | 0.00 | 30 | 1013.9 |
| 20260905193105 | 100 | 172 | 3.0 | 9.0 | 0.00 | 0.00 | 0.00 | 30 | 1014.1 |
| 20260905192603 | 100 | 148 | 5.0 | 8.0 | 0.00 | 0.00 | 0.00 | 30 | 1014.1 |
| 20260905192100 | 100 | 217 | 3.0 | 7.0 | 0.00 | 0.00 | 0.00 | 30 | 1014.2 |
| 20260905191605 | 99 | 160 | 3.0 | 9.0 | 0.00 | 0.00 | 0.00 | 30 | 1014.2 |
| 20260905191101 | 99 | 144 | 4.0 | 9.0 | 0.00 | 0.00 | 0.00 | 30 | 1014.3 |
| 20260905190601 | 99 | 173 | 4.0 | 7.0 | 0.00 | 0.00 | 0.00 | 31 | 1014.4 |
| 20260905190104 | 100 | 185 | 2.0 | 7.0 | 0.00 | 0.00 | 0.00 | 30 | 1014.5 |
| 20260905185559 | 99 | 120 | 3.0 | 7.0 | 0.00 | 0.00 | 0.00 | 31 | 1014.5 |
| 20260905185101 | 98 | 117 | 3.0 | 7.0 | 0.00 | 0.00 | 0.00 | 31 | 1014.5 |
| 20260905184603 | 98 | 150 | 3.0 | 9.0 | 0.00 | 0.00 | 0.00 | 31 | 1014.6 |
| 20260905184104 | 98 | 101 | 4.0 | 9.0 | 0.00 | 0.00 | 0.00 | 31 | 1014.7 |
| 20260905183600 | 98 | 90 | 5.0 | 9.0 | 0.00 | 0.00 | 0.00 | 31 | 1014.7 |
| 20260905183105 | 98 | 192 | 3.0 | 9.0 | 0.00 | 0.00 | 0.00 | 31 | 1014.9 |
| 20260905182559 | 98 | 147 | 4.0 | 9.0 | 0.00 | 0.00 | 0.00 | 32 | 1015.0 |
| 20260905182100 | 98 | 160 | 2.0 | 8.0 | 0.00 | 0.00 | 0.00 | 32 | 1015.0 |
| 20260905181603 | 98 | 122 | 4.0 | 8.0 | 0.00 | 0.00 | 0.00 | 32 | 1015.0 |
| 20260905181101 | 98 | 191 | 2.0 | 8.0 | 0.00 | 0.00 | 0.00 | 32 | 1015.0 |
| 20260905180602 | 97 | 165 | 3.0 | 10.0 | 0.00 | 0.00 | 0.00 | 32 | 1014.9 |
| 20260905180116 | 98 | 139 | 5.0 | 10.0 | 0.00 | 0.00 | 0.00 | 32 | 1015.0 |
| 20260905175600 | 97 | 203 | 2.0 | 7.0 | 0.00 | 0.00 | 0.00 | 34 | 1015.0 |
| 20260905175104 | 97 | 133 | 4.0 | 7.0 | 0.00 | 0.00 | 0.00 | 34 | 1015.0 |
| 20260905174605 | 96 | 158 | 2.0 | 6.0 | 0.00 | 0.00 | 0.00 | 35 | 1015.1 |
| 20260905174100 | 96 | 160 | 4.0 | 6.0 | 0.00 | 0.00 | 0.00 | 35 | 1015.2 |
| 20260905173601 | 96 | 179 | 3.0 | 5.0 | 0.00 | 0.00 | 0.00 | 35 | 1015.0 |
| 20260905173132 | 95 | 126 | 1.0 | 5.0 | 0.00 | 0.00 | 0.00 | 36 | 1015.0 |
| 20260905172600 | 94 | 0 | 1.0 | 5.0 | 0.00 | 0.00 | 0.00 | 35 | 1015.0 |
| 20260905172100 | 94 | 120 | 3.0 | 5.0 | 0.00 | 0.00 | 0.00 | 35 | 1015.0 |
| 20260905171606 | 94 | 118 | 2.0 | 5.0 | 0.00 | 0.00 | 0.00 | 36 | 1014.9 |
| 20260905171059 | 94 | 158 | 3.0 | 5.0 | 0.00 | 0.00 | 0.00 | 37 | 1014.9 |
| 20260905170600 | 94 | 124 | 2.0 | 4.0 | 0.00 | 0.00 | 0.00 | 36 | 1014.9 |
| 20260905170105 | 94 | 103 | 1.0 | 5.0 | 0.00 | 0.00 | 0.00 | 36 | 1015.0 |
| 20260905165600 | 93 | 134 | 1.0 | 5.0 | 0.00 | 0.00 | 0.00 | 37 | 1015.0 |
| 20260905165100 | 93 | 155 | 2.0 | 6.0 | 0.00 | 0.00 | 0.00 | 37 | 1015.0 |
| 20260905164614 | 93 | 135 | 2.0 | 6.0 | 0.00 | 0.00 | 0.00 | 38 | 1015.0 |
| 20260905164104 | 93 | 94 | 3.0 | 6.0 | 0.00 | 0.00 | 0.00 | 38 | 1014.9 |
| 20260905163600 | 93 | 83 | 2.0 | 5.0 | 0.00 | 0.00 | 0.00 | 38 | 1014.9 |
| 20260905163109 | 93 | 93 | 2.0 | 5.0 | 0.00 | 0.00 | 0.00 | 39 | 1014.9 |
| 20260905162601 | 92 | 108 | 1.0 | 3.0 | 0.00 | 0.00 | 0.00 | 39 | 1014.9 |
| 20260905162059 | 92 | 132 | 1.0 | 3.0 | 0.00 | 0.00 | 0.00 | 39 | 1014.9 |
| 20260905161605 | 91 | 94 | 1.0 | 3.0 | 0.00 | 0.00 | 0.00 | 40 | 1015.0 |
| 20260905161101 | 90 | 111 | 1.0 | 3.0 | 0.00 | 0.00 | 0.00 | 41 | 1014.9 |
| 20260905160559 | 90 | 105 | 0.0 | 3.0 | 0.00 | 0.00 | 0.00 | 40 | 1014.9 |
| 20260905160107 | 90 | 63 | 0.0 | 4.0 | 0.00 | 0.00 | 0.00 | 40 | 1014.8 |
| 20260905155600 | 90 | 337 | 1.0 | 4.0 | 0.00 | 0.00 | 0.00 | 40 | 1014.7 |
| 20260905155105 | 89 | 23 | 1.0 | 4.0 | 0.00 | 0.00 | 0.00 | 42 | 1014.7 |
| 20260905154606 | 88 | 90 | 2.0 | 4.0 | 0.00 | 0.00 | 0.00 | 43 | 1014.7 |
| 20260905154100 | 88 | 72 | 1.0 | 3.0 | 0.00 | 0.00 | 0.00 | 43 | 1014.7 |
| 20260905153604 | 87 | 57 | 2.0 | 4.0 | 0.00 | 0.00 | 0.00 | 44 | 1014.7 |
| 20260905153104 | 86 | 69 | 2.0 | 4.0 | 0.00 | 0.00 | 0.00 | 45 | 1014.6 |
| 20260905152602 | 86 | 70 | 2.0 | 3.0 | 0.00 | 0.00 | 0.00 | 45 | 1014.7 |
| 20260905152059 | 86 | 0 | 1.0 | 5.0 | 0.00 | 0.00 | 0.00 | 45 | 1014.7 |
| 20260905151602 | 86 | 79 | 0.0 | 5.0 | 0.00 | 0.00 | 0.00 | 45 | 1014.6 |